• In Uzbekistan
  • List of Countries
  • For 7 days
  • Water Temperature
  • Satellite Maps
  • Weather Map
  • Weather Widgets
  • user-avatar
    Login

    Hourly Weather Tianjin

    Today, 20 June, Thursday

    Time Temperature Precipitation Wind Pressure Humidity
    00:00 +26°C° 0 mm 2 mps 752 mmHg 68%
    01:00 +26°C° 0 mm 2 mps 752 mmHg 69%
    02:00 +25°C° 0 mm 2 mps 752 mmHg 72%
    03:00 +25°C° 0.1 mm 1 mps 752 mmHg 73%
    04:00 +25°C° 0.1 mm 1 mps 752 mmHg 73%
    05:00 +25°C° 0.1 mm 1 mps 752 mmHg 74%
    06:00 +26°C° 0 mm 1 mps 752 mmHg 70%
    07:00 +26°C° 0 mm 1 mps 752 mmHg 67%
    08:00 +27°C° 0 mm 1 mps 752 mmHg 63%
    09:00 +29°C° 0 mm 1 mps 752 mmHg 57%
    10:00 +31°C° 0 mm 1 mps 752 mmHg 51%
    11:00 +31°C° 0 mm 0 mps 752 mmHg 45%
    12:00 +34°C° 0 mm 1 mps 751 mmHg 41%
    13:00 +35°C° 0 mm 1 mps 751 mmHg 37%
    14:00 +38°C° 0 mm 2 mps 750 mmHg 34%
    15:00 +37°C° 0 mm 1 mps 750 mmHg 31%
    16:00 +39°C° 0 mm 1 mps 750 mmHg 29%
    17:00 +39°C° 0 mm 1 mps 749 mmHg 27%
    18:00 +38°C° 0 mm 2 mps 750 mmHg 31%
    19:00 +36°C° 0 mm 3 mps 750 mmHg 36%
    20:00 +35°C° 0 mm 4 mps 750 mmHg 40%
    21:00 +34°C° 0 mm 3 mps 751 mmHg 42%
    22:00 +32°C° 0 mm 2 mps 751 mmHg 45%
    23:00 +31°C° 0 mm 2 mps 751 mmHg 47%

    Tomorrow, 21 June, Friday

    Time Temperature Precipitation Wind Pressure Humidity
    00:00 +31°C° 0 mm 2 mps 752 mmHg 48%
    01:00 +30°C° 0 mm 1 mps 752 mmHg 50%
    02:00 +30°C° 0 mm 1 mps 752 mmHg 51%
    03:00 +28°C° 0 mm 3 mps 753 mmHg 58%
    04:00 +27°C° 0 mm 4 mps 753 mmHg 64%
    05:00 +26°C° 0 mm 6 mps 753 mmHg 71%
    06:00 +27°C° 0 mm 6 mps 754 mmHg 64%
    07:00 +27°C° 0 mm 5 mps 754 mmHg 56%
    08:00 +28°C° 0 mm 5 mps 755 mmHg 49%
    09:00 +30°C° 0 mm 5 mps 755 mmHg 43%
    10:00 +32°C° 0 mm 6 mps 755 mmHg 37%
    11:00 +34°C° 0 mm 6 mps 755 mmHg 31%
    12:00 +34°C° 0 mm 6 mps 755 mmHg 29%
    13:00 +34°C° 0 mm 6 mps 755 mmHg 28%
    14:00 +34°C° 0 mm 6 mps 754 mmHg 26%
    15:00 +34°C° 0 mm 6 mps 754 mmHg 26%
    16:00 +33°C° 0 mm 6 mps 754 mmHg 27%
    17:00 +33°C° 0 mm 5 mps 754 mmHg 27%
    18:00 +30°C° 0 mm 5 mps 755 mmHg 30%
    19:00 +29°C° 0 mm 4 mps 755 mmHg 33%
    20:00 +28°C° 0 mm 3 mps 755 mmHg 36%
    21:00 +27°C° 0 mm 3 mps 755 mmHg 38%
    22:00 +27°C° 0 mm 3 mps 756 mmHg 41%
    23:00 +26°C° 0 mm 2 mps 756 mmHg 43%

    Day after tomorrow, 22 June, Saturday

    Time Temperature Precipitation Wind Pressure Humidity
    00:00 +26°C° 0 mm 2 mps 756 mmHg 45%
    01:00 +25°C° 0 mm 2 mps 756 mmHg 46%
    02:00 +25°C° 0 mm 1 mps 756 mmHg 47%
    03:00 +25°C° 0 mm 1 mps 756 mmHg 48%
    04:00 +24°C° 0 mm 1 mps 756 mmHg 48%
    05:00 +22°C° 0 mm 0 mps 756 mmHg 49%
    06:00 +24°C° 0 mm 0 mps 756 mmHg 44%
    07:00 +28°C° 0 mm 1 mps 757 mmHg 38%
    08:00 +30°C° 0 mm 1 mps 757 mmHg 33%
    09:00 +32°C° 0 mm 1 mps 756 mmHg 30%
    10:00 +33°C° 0 mm 1 mps 756 mmHg 26%
    11:00 +35°C° 0 mm 1 mps 756 mmHg 23%
    12:00 +36°C° 0 mm 1 mps 755 mmHg 22%
    13:00 +37°C° 0 mm 1 mps 754 mmHg 21%
    14:00 +39°C° 0 mm 1 mps 754 mmHg 20%
    15:00 +39°C° 0 mm 1 mps 753 mmHg 19%
    16:00 +39°C° 0 mm 1 mps 753 mmHg 19%
    17:00 +39°C° 0 mm 1 mps 753 mmHg 18%
    18:00 +37°C° 0 mm 2 mps 753 mmHg 21%
    19:00 +36°C° 0 mm 3 mps 753 mmHg 24%
    20:00 +34°C° 0 mm 4 mps 753 mmHg 27%
    21:00 +33°C° 0 mm 4 mps 753 mmHg 29%
    22:00 +32°C° 0 mm 4 mps 753 mmHg 31%
    23:00 +30°C° 0 mm 4 mps 754 mmHg 32%

    23 June, Sunday

    Time Temperature Precipitation Wind Pressure Humidity
    00:00 +29°C° 0 mm 3 mps 754 mmHg 33%
    01:00 +29°C° 0 mm 2 mps 754 mmHg 34%
    02:00 +28°C° 0 mm 2 mps 754 mmHg 35%
    03:00 +28°C° 0 mm 2 mps 754 mmHg 36%
    04:00 +27°C° 0 mm 2 mps 754 mmHg 36%
    05:00 +27°C° 0 mm 2 mps 754 mmHg 36%
    06:00 +29°C° 0 mm 2 mps 754 mmHg 32%
    07:00 +31°C° 0 mm 2 mps 754 mmHg 29%
    08:00 +34°C° 0 mm 2 mps 754 mmHg 25%
    09:00 +36°C° 0 mm 2 mps 754 mmHg 23%
    10:00 +37°C° 0 mm 3 mps 753 mmHg 21%
    11:00 +39°C° 0 mm 3 mps 753 mmHg 19%
    12:00 +40°C° 0 mm 3 mps 752 mmHg 18%
    13:00 +42°C° 0 mm 3 mps 752 mmHg 17%
    14:00 +43°C° 0 mm 3 mps 751 mmHg 16%
    15:00 +43°C° 0 mm 3 mps 751 mmHg 16%
    16:00 +43°C° 0 mm 3 mps 750 mmHg 16%
    17:00 +43°C° 0 mm 3 mps 750 mmHg 16%
    18:00 +41°C° 0 mm 4 mps 750 mmHg 19%
    19:00 +38°C° 0 mm 4 mps 750 mmHg 22%
    20:00 +36°C° 0 mm 5 mps 750 mmHg 25%
    21:00 +36°C° 0 mm 4 mps 751 mmHg 25%
    22:00 +35°C° 0 mm 4 mps 751 mmHg 26%
    23:00 +34°C° 0 mm 4 mps 752 mmHg 27%

    24 June, Monday

    Time Temperature Precipitation Wind Pressure Humidity
    00:00 +33°C° 0 mm 3 mps 752 mmHg 31%
    01:00 +31°C° 0 mm 3 mps 752 mmHg 34%
    02:00 +30°C° 0 mm 2 mps 752 mmHg 38%
    03:00 +29°C° 0 mm 2 mps 752 mmHg 39%
    04:00 +29°C° 0 mm 2 mps 752 mmHg 40%
    05:00 +28°C° 0 mm 2 mps 752 mmHg 41%
    06:00 +30°C° 0 mm 2 mps 753 mmHg 36%
    07:00 +32°C° 0 mm 2 mps 753 mmHg 32%
    08:00 +35°C° 0 mm 2 mps 753 mmHg 28%
    09:00 +37°C° 0 mm 2 mps 753 mmHg 24%
    10:00 +39°C° 0 mm 1 mps 753 mmHg 21%
    11:00 +41°C° 0 mm 1 mps 753 mmHg 18%
    12:00 +42°C° 0 mm 2 mps 753 mmHg 16%
    13:00 +44°C° 0 mm 3 mps 752 mmHg 15%
    14:00 +45°C° 0 mm 3 mps 752 mmHg 13%
    15:00 +44°C° 0 mm 4 mps 751 mmHg 14%
    16:00 +44°C° 0 mm 4 mps 751 mmHg 14%
    17:00 +43°C° 0 mm 5 mps 751 mmHg 15%
    18:00 +41°C° 0 mm 5 mps 751 mmHg 18%
    19:00 +39°C° 0 mm 5 mps 751 mmHg 21%
    20:00 +37°C° 0 mm 4 mps 752 mmHg 25%
    21:00 +36°C° 0 mm 4 mps 752 mmHg 26%
    22:00 +35°C° 0 mm 4 mps 752 mmHg 27%
    23:00 +35°C° 0 mm 3 mps 753 mmHg 28%

    25 June, Tuesday

    Time Temperature Precipitation Wind Pressure Humidity
    00:00 +34°C° 0 mm 3 mps 753 mmHg 29%
    01:00 +33°C° 0 mm 3 mps 753 mmHg 31%
    02:00 +31°C° 0 mm 3 mps 753 mmHg 32%
    03:00 +31°C° 0 mm 2 mps 753 mmHg 35%
    04:00 +30°C° 0 mm 2 mps 753 mmHg 38%
    05:00 +29°C° 0 mm 2 mps 753 mmHg 41%
    06:00 +31°C° 0 mm 2 mps 753 mmHg 36%
    07:00 +32°C° 0 mm 2 mps 753 mmHg 32%
    08:00 +35°C° 0 mm 2 mps 753 mmHg 28%
    09:00 +37°C° 0 mm 2 mps 753 mmHg 25%
    10:00 +39°C° 0 mm 2 mps 753 mmHg 22%
    11:00 +40°C° 0 mm 3 mps 753 mmHg 19%
    12:00 +42°C° 0 mm 3 mps 753 mmHg 18%
    13:00 +43°C° 0 mm 4 mps 752 mmHg 18%
    14:00 +45°C° 0 mm 5 mps 752 mmHg 17%
    15:00 +43°C° 0 mm 5 mps 752 mmHg 18%
    16:00 +44°C° 0 mm 6 mps 751 mmHg 19%
    17:00 +42°C° 0 mm 6 mps 751 mmHg 19%
    18:00 +41°C° 0 mm 6 mps 751 mmHg 23%
    19:00 +39°C° 0 mm 5 mps 751 mmHg 26%
    20:00 +36°C° 0 mm 4 mps 751 mmHg 30%
    21:00 +35°C° 0 mm 4 mps 752 mmHg 32%
    22:00 +34°C° 0 mm 4 mps 752 mmHg 34%
    23:00 +34°C° 0 mm 3 mps 753 mmHg 37%
    Show more